• In Deutschland
  • Länderverzeichnis
  • Für 7 Tage
  • Wassertemperatur
  • Satellitenkarten
  • Wetterkarte
  • Widgets
  • user-avatar
    Anmelden

    Stündliche Wetter Rangpur

    Heute, 21 August, Montag

    Zeit Temperatur Niederschläge Wind Luftdruck Luftfeuchtigkeit
    00:00 +29°C° 0 mm 0 m/S 751 mmHg 69%
    01:00 +31°C° 0 mm 1 m/S 750 mmHg 70%
    02:00 +31°C° 0 mm 1 m/S 750 mmHg 71%
    03:00 +30°C° 0 mm 1 m/S 750 mmHg 73%
    04:00 +30°C° 0 mm 1 m/S 750 mmHg 74%
    05:00 +30°C° 0 mm 1 m/S 750 mmHg 76%
    06:00 +30°C° 0 mm 1 m/S 750 mmHg 79%
    07:00 +31°C° 0,3 mm 1 m/S 750 mmHg 75%
    08:00 +32°C° 0,3 mm 1 m/S 751 mmHg 71%
    09:00 +33°C° 0,3 mm 1 m/S 751 mmHg 66%
    10:00 +34°C° 0,4 mm 1 m/S 750 mmHg 62%
    11:00 +35°C° 0,4 mm 1 m/S 750 mmHg 58%
    12:00 +36°C° 0 mm 2 m/S 750 mmHg 56%
    13:00 +36°C° 0,1 mm 2 m/S 749 mmHg 55%
    14:00 +37°C° 0,1 mm 2 m/S 749 mmHg 54%
    15:00 +37°C° 0,1 mm 2 m/S 748 mmHg 53%
    16:00 +35°C° 0 mm 1 m/S 748 mmHg 55%
    17:00 +35°C° 0 mm 1 m/S 748 mmHg 57%
    18:00 +35°C° 0 mm 1 m/S 748 mmHg 60%
    19:00 +34°C° 0 mm 1 m/S 748 mmHg 61%
    20:00 +34°C° 0 mm 1 m/S 748 mmHg 63%
    21:00 +33°C° 0 mm 1 m/S 749 mmHg 65%
    22:00 +33°C° 0 mm 1 m/S 749 mmHg 66%
    23:00 +30°C° 0 mm 0 m/S 749 mmHg 67%

    Morgen, 22 August, Dienstag

    Zeit Temperatur Niederschläge Wind Luftdruck Luftfeuchtigkeit
    00:00 +30°C° 0 mm 0 m/S 749 mmHg 69%
    01:00 +30°C° 0,1 mm 0 m/S 749 mmHg 70%
    02:00 +29°C° 0,1 mm 0 m/S 749 mmHg 71%
    03:00 +31°C° 0,1 mm 1 m/S 748 mmHg 72%
    04:00 +31°C° 0 mm 1 m/S 748 mmHg 74%
    05:00 +31°C° 0 mm 1 m/S 749 mmHg 75%
    06:00 +30°C° 0 mm 1 m/S 749 mmHg 77%
    07:00 +31°C° 0,4 mm 1 m/S 749 mmHg 73%
    08:00 +32°C° 0,4 mm 1 m/S 749 mmHg 69%
    09:00 +33°C° 0,4 mm 1 m/S 750 mmHg 65%
    10:00 +34°C° 0,3 mm 1 m/S 750 mmHg 62%
    11:00 +35°C° 0,3 mm 1 m/S 749 mmHg 58%
    12:00 +34°C° 0,3 mm 0 m/S 749 mmHg 54%
    13:00 +35°C° 0 mm 0 m/S 749 mmHg 53%
    14:00 +35°C° 0 mm 0 m/S 748 mmHg 51%
    15:00 +35°C° 0 mm 0 m/S 748 mmHg 50%
    16:00 +35°C° 0 mm 0 m/S 747 mmHg 52%
    17:00 +34°C° 0 mm 0 m/S 747 mmHg 55%
    18:00 +34°C° 0 mm 0 m/S 747 mmHg 57%
    19:00 +33°C° 0 mm 0 m/S 748 mmHg 59%
    20:00 +33°C° 0 mm 0 m/S 748 mmHg 60%
    21:00 +32°C° 0 mm 0 m/S 749 mmHg 61%
    22:00 +32°C° 0 mm 0 m/S 749 mmHg 63%
    23:00 +33°C° 0 mm 1 m/S 749 mmHg 64%

    übermorgen, 23 August, Mittwoch

    Zeit Temperatur Niederschläge Wind Luftdruck Luftfeuchtigkeit
    00:00 +33°C° 0 mm 1 m/S 749 mmHg 66%
    01:00 +33°C° 0 mm 1 m/S 749 mmHg 68%
    02:00 +32°C° 0 mm 1 m/S 749 mmHg 70%
    03:00 +32°C° 0 mm 1 m/S 749 mmHg 72%
    04:00 +32°C° 1,3 mm 1 m/S 749 mmHg 74%
    05:00 +31°C° 1,3 mm 1 m/S 749 mmHg 75%
    06:00 +31°C° 1,3 mm 1 m/S 750 mmHg 77%
    07:00 +32°C° 0,8 mm 1 m/S 750 mmHg 73%
    08:00 +33°C° 0,8 mm 1 m/S 750 mmHg 69%
    09:00 +34°C° 0,8 mm 1 m/S 751 mmHg 65%
    10:00 +35°C° 1,5 mm 1 m/S 751 mmHg 62%
    11:00 +36°C° 1,5 mm 1 m/S 750 mmHg 59%
    12:00 +36°C° 1,5 mm 1 m/S 750 mmHg 55%
    13:00 +37°C° 0 mm 1 m/S 749 mmHg 54%
    14:00 +37°C° 0 mm 1 m/S 748 mmHg 52%
    15:00 +35°C° 0 mm 0 m/S 748 mmHg 50%
    16:00 +35°C° 0 mm 0 m/S 747 mmHg 53%
    17:00 +34°C° 0 mm 0 m/S 747 mmHg 56%
    18:00 +34°C° 0 mm 0 m/S 747 mmHg 59%
    19:00 +35°C° 0 mm 1 m/S 748 mmHg 60%
    20:00 +35°C° 0 mm 1 m/S 748 mmHg 61%
    21:00 +34°C° 0 mm 1 m/S 749 mmHg 62%
    22:00 +35°C° 0 mm 2 m/S 749 mmHg 64%
    23:00 +34°C° 0 mm 2 m/S 749 mmHg 66%

    24 August, Donnerstag

    Zeit Temperatur Niederschläge Wind Luftdruck Luftfeuchtigkeit
    00:00 +34°C° 0 mm 2 m/S 749 mmHg 68%
    01:00 +32°C° 0,2 mm 2 m/S 749 mmHg 70%
    02:00 +32°C° 0,2 mm 2 m/S 748 mmHg 73%
    03:00 +32°C° 0,2 mm 2 m/S 748 mmHg 75%
    04:00 +31°C° 0,3 mm 2 m/S 748 mmHg 77%
    05:00 +31°C° 0,3 mm 2 m/S 749 mmHg 79%
    06:00 +31°C° 0,3 mm 2 m/S 749 mmHg 80%
    07:00 +32°C° 1,3 mm 2 m/S 749 mmHg 76%
    08:00 +34°C° 1,3 mm 2 m/S 750 mmHg 72%
    09:00 +35°C° 1,3 mm 2 m/S 750 mmHg 68%
    10:00 +35°C° 1,2 mm 3 m/S 750 mmHg 67%
    11:00 +35°C° 1,2 mm 3 m/S 750 mmHg 67%
    12:00 +35°C° 1,2 mm 3 m/S 749 mmHg 66%
    13:00 +35°C° 0,1 mm 2 m/S 748 mmHg 64%
    14:00 +36°C° 0,1 mm 2 m/S 748 mmHg 62%
    15:00 +35°C° 0,1 mm 1 m/S 747 mmHg 60%
    16:00 +35°C° 0 mm 1 m/S 747 mmHg 62%
    17:00 +35°C° 0 mm 1 m/S 747 mmHg 64%
    18:00 +34°C° 0 mm 1 m/S 747 mmHg 65%
    19:00 +34°C° 0 mm 1 m/S 747 mmHg 68%
    20:00 +33°C° 0 mm 1 m/S 748 mmHg 71%
    21:00 +32°C° 0 mm 1 m/S 748 mmHg 73%
    22:00 +32°C° 0,2 mm 1 m/S 748 mmHg 74%
    23:00 +32°C° 0,2 mm 1 m/S 748 mmHg 76%

    25 August, Freitag

    Zeit Temperatur Niederschläge Wind Luftdruck Luftfeuchtigkeit
    00:00 +31°C° 0,2 mm 1 m/S 748 mmHg 77%
    01:00 +31°C° 0,1 mm 1 m/S 748 mmHg 78%
    02:00 +31°C° 0,1 mm 1 m/S 747 mmHg 80%
    03:00 +30°C° 0,1 mm 1 m/S 747 mmHg 81%
    04:00 +30°C° 0 mm 1 m/S 747 mmHg 82%
    05:00 +30°C° 0 mm 1 m/S 747 mmHg 83%
    06:00 +30°C° 0 mm 1 m/S 747 mmHg 84%
    07:00 +31°C° 0,1 mm 2 m/S 748 mmHg 79%
    08:00 +32°C° 0,1 mm 2 m/S 748 mmHg 75%
    09:00 +34°C° 0,1 mm 2 m/S 749 mmHg 70%
    10:00 +35°C° 0,5 mm 2 m/S 748 mmHg 66%
    11:00 +36°C° 0,5 mm 2 m/S 748 mmHg 62%
    12:00 +37°C° 0,5 mm 2 m/S 748 mmHg 58%
    13:00 +37°C° 0 mm 2 m/S 747 mmHg 57%
    14:00 +37°C° 0 mm 2 m/S 746 mmHg 56%
    15:00 +38°C° 0 mm 2 m/S 745 mmHg 55%
    16:00 +37°C° 0 mm 2 m/S 745 mmHg 58%
    17:00 +36°C° 0 mm 2 m/S 746 mmHg 61%
    18:00 +36°C° 0 mm 2 m/S 746 mmHg 64%
    19:00 +35°C° 0 mm 2 m/S 746 mmHg 65%
    20:00 +35°C° 0 mm 2 m/S 747 mmHg 66%
    21:00 +34°C° 0 mm 2 m/S 747 mmHg 67%
    22:00 +34°C° 0,1 mm 2 m/S 747 mmHg 69%
    23:00 +34°C° 0,1 mm 2 m/S 747 mmHg 71%

    26 August, Samstag

    Zeit Temperatur Niederschläge Wind Luftdruck Luftfeuchtigkeit
    00:00 +32°C° 0,1 mm 1 m/S 747 mmHg 72%
    01:00 +32°C° 0,8 mm 1 m/S 747 mmHg 74%
    02:00 +31°C° 0,8 mm 1 m/S 746 mmHg 76%
    03:00 +31°C° 0,8 mm 1 m/S 746 mmHg 78%
    04:00 +31°C° 0,3 mm 1 m/S 746 mmHg 80%
    05:00 +30°C° 0,3 mm 1 m/S 746 mmHg 81%
    06:00 +30°C° 0,3 mm 1 m/S 746 mmHg 83%
    07:00 +31°C° 1,2 mm 1 m/S 747 mmHg 78%
    08:00 +32°C° 1,2 mm 1 m/S 747 mmHg 74%
    09:00 +33°C° 1,2 mm 1 m/S 748 mmHg 69%
    10:00 +35°C° 1,4 mm 2 m/S 748 mmHg 67%
    11:00 +35°C° 1,4 mm 2 m/S 748 mmHg 66%
    12:00 +36°C° 1,4 mm 3 m/S 747 mmHg 64%
    13:00 +35°C° 0,9 mm 3 m/S 747 mmHg 66%
    14:00 +35°C° 0,9 mm 3 m/S 746 mmHg 67%
    15:00 +35°C° 0,9 mm 3 m/S 746 mmHg 69%
    16:00 +34°C° 0,1 mm 3 m/S 746 mmHg 71%
    17:00 +34°C° 0,1 mm 3 m/S 746 mmHg 74%
    18:00 +33°C° 0,1 mm 3 m/S 746 mmHg 76%
    19:00 +32°C° 0 mm 2 m/S 746 mmHg 77%
    20:00 +31°C° 0 mm 2 m/S 747 mmHg 79%
    21:00 +31°C° 0 mm 2 m/S 747 mmHg 81%
    22:00 +30°C° 0,1 mm 2 m/S 747 mmHg 82%
    23:00 +30°C° 0,1 mm 2 m/S 747 mmHg 83%
    Mehr zeigen